Weather History for Bolton Field, OH

Change the Weather History Date:

Saturday, August 3, 2013

  Actual Average Record
Temperature  
Mean Temperature 70 °F -  
Max Temperature 78 °F 81 °F 91 °F (2002)
Min Temperature 62 °F 63 °F 57 °F (1999)
Cooling Degree Days 5    
Growing Degree Days 20 (Base 50)    
Moisture  
Dew Point 64 °F    
Average Humidity 87    
Maximum Humidity 100    
Minimum Humidity 57    
Precipitation  
Precipitation 0.16 in - - ()
Sea Level Pressure  
Sea Level Pressure 30.00 in    
Wind  
Wind Speed 3 mph (WSW)    
Max Wind Speed 9 mph    
Max Gust Speed -    
Visibility 9 miles    
Events Rain    
Averages and records for this station are not official NWS values.
T = Trace of Precipitation, MM = Missing Value Source: NWS Daily Summary

Daily Weather History Graph

Daily Weather History Graph

Search for Another Location

Airport:

Trip Planner

Search our weather history database for the weather conditions in past years. The results will help you decide how hot, cold, wet, or windy it might be!

Date:

Astronomy

Aug. 03, 2013 Rise Set
Actual Time 6:33 AM EDT 8:43 PM EDT
Civil Twilight 6:03 AM EDT 9:13 PM EDT
Nautical Twilight 5:26 AM EDT 9:50 PM EDT
Astronomical Twilight 4:45 AM EDT 10:30 PM EDT
Moon 3:41 AM EDT (8/3) 6:25 PM EDT (8/3)
Length of Visible Light 15h 10m
Length of Day
14h 10m
Waning Crescent, 9% of the Moon is Illuminated
Aug 3
Waning Crescent
Aug 6
New
Aug 14
First Quarter
Aug 20
Full
Aug 28
Last Quarter

Hourly Weather History & Observations

Time (EDT) Temp. Dew Point Humidity Pressure Visibility Wind Dir Wind Speed Gust Speed Precip Events Conditions
12:15 AM 68.9 °F 65.3 °F 88% 29.99 in 10.0 mi Calm Calm - N/A   Overcast
12:35 AM 68.5 °F 65.7 °F 90% 29.99 in 10.0 mi Calm Calm - N/A   Overcast
12:55 AM 68.2 °F 65.8 °F 92% 30.00 in 10.0 mi SSE 3.5 mph - N/A Rain Light Rain
1:15 AM 68.4 °F 65.8 °F 92% 30.01 in 7.0 mi WSW 3.5 mph - 0.01 in Rain Rain
1:35 AM 68.2 °F 65.5 °F 91% 30.01 in 10.0 mi SSE 4.6 mph - 0.04 in Rain Light Rain
1:55 AM 67.6 °F 64.8 °F 90% 30.00 in 10.0 mi SSE 3.5 mph - 0.04 in Rain Light Rain
2:15 AM 67.5 °F 64.2 °F 89% 30.00 in 10.0 mi South 5.8 mph - N/A   Overcast
2:35 AM 67.6 °F 64.0 °F 88% 30.00 in 10.0 mi SSW 6.9 mph - N/A   Overcast
2:55 AM 67.1 °F 63.5 °F 88% 30.00 in 10.0 mi SSW 9.2 mph - N/A Rain Light Rain
3:15 AM 66.2 °F 62.2 °F 87% 30.00 in 10.0 mi SW 4.6 mph - N/A   Light Drizzle
3:35 AM 66.2 °F 62.1 °F 86% 29.99 in 10.0 mi West 4.6 mph - 0.01 in Rain Rain
3:55 AM 66.0 °F 62.6 °F 89% 29.99 in 10.0 mi WNW 5.8 mph - 0.02 in Rain Light Rain
4:15 AM 65.3 °F 63.1 °F 93% 29.98 in 10.0 mi Calm Calm - N/A   Mostly Cloudy
4:35 AM 65.7 °F 63.5 °F 93% 29.98 in 10.0 mi Calm Calm - N/A Rain Light Rain
4:55 AM 65.5 °F 63.5 °F 93% 29.99 in 10.0 mi Calm Calm - 0.01 in Rain Light Rain
5:15 AM 64.9 °F 63.9 °F 96% 29.98 in 10.0 mi Calm Calm - N/A Rain Light Rain
5:35 AM 64.9 °F 64.4 °F 98% 29.99 in 7.0 mi Calm Calm - 0.01 in Rain Light Rain
5:55 AM 65.3 °F 64.4 °F 97% 29.99 in 7.0 mi Calm Calm - 0.03 in Rain Light Rain
6:15 AM 64.9 °F 64.6 °F 99% 29.99 in 5.0 mi SSW 3.5 mph - 0.02 in Rain Rain
6:35 AM 64.9 °F 64.4 °F 98% 29.99 in 7.0 mi SSW 3.5 mph - 0.03 in Rain Light Rain
6:55 AM 64.9 °F 64.6 °F 99% 29.99 in 3.0 mi South 4.6 mph - 0.06 in Rain Light Rain
7:15 AM 64.9 °F 64.6 °F 99% 29.98 in 4.0 mi SSE 5.8 mph - N/A   Overcast
7:20 AM 64.4 °F 64.4 °F 100% 29.98 in 4.0 mi South 3.5 mph - N/A   Overcast
7:47 AM 66.2 °F 64.4 °F 94% 29.99 in 3.0 mi South 3.5 mph - N/A   Overcast
8:05 AM 66.2 °F 66.2 °F 100% 29.99 in 2.0 mi SSW 3.5 mph - N/A Rain Light Rain
9:15 AM 68.0 °F 66.2 °F 94% 29.99 in 5.0 mi West 3.5 mph - N/A   Overcast
9:50 AM 69.8 °F 68.0 °F 94% 29.99 in 7.0 mi West 3.5 mph - N/A   Overcast
10:47 AM 71.6 °F 66.2 °F 83% 30.00 in 7.0 mi WNW 4.6 mph - N/A   Overcast
11:50 AM 73.4 °F 66.2 °F 78% 30.00 in 10.0 mi NW 5.8 mph - N/A   Overcast
12:50 PM 75.2 °F 66.2 °F 73% 30.00 in 10.0 mi NNW 3.5 mph - N/A   Mostly Cloudy
1:50 PM 73.4 °F 66.2 °F 78% 30.01 in 10.0 mi Calm Calm - N/A   Overcast
2:50 PM 75.2 °F 66.2 °F 73% 30.00 in 10.0 mi Calm Calm - N/A   Overcast
3:58 PM 78.8 °F 64.4 °F 61% 29.99 in 10.0 mi NW 9.2 mph - N/A   Mostly Cloudy
5:47 PM 78.8 °F 62.6 °F 57% 30.00 in 10.0 mi NW 6.9 mph - N/A   Scattered Clouds
6:50 PM 77.0 °F 62.6 °F 61% 30.00 in 10.0 mi WNW 8.1 mph - N/A   Scattered Clouds
7:35 PM 76.1 °F 60.8 °F 59% 30.00 in 10.0 mi NNW 9.2 mph - N/A   Clear
7:55 PM 75.2 °F 60.1 °F 59% 30.00 in 10.0 mi North 8.1 mph - N/A   Clear
8:15 PM 73.2 °F 60.6 °F 65% 30.01 in 10.0 mi NNW 5.8 mph - N/A   Clear
8:35 PM 71.6 °F 60.1 °F 67% 30.01 in 10.0 mi North 5.8 mph - N/A   Clear
8:55 PM 69.8 °F 61.0 °F 73% 30.01 in 10.0 mi Calm Calm - N/A   Clear
9:15 PM 66.6 °F 62.4 °F 86% 30.01 in 10.0 mi Calm Calm - N/A   Clear
9:35 PM 66.0 °F 62.1 °F 87% 30.01 in 10.0 mi Calm Calm - N/A   Clear
9:55 PM 64.0 °F 62.6 °F 95% 30.02 in 10.0 mi Calm Calm - N/A   Clear
10:15 PM 63.1 °F 61.7 °F 95% 30.02 in 10.0 mi Calm Calm - N/A   Clear
10:35 PM 63.3 °F 61.7 °F 94% 30.02 in 10.0 mi Calm Calm - N/A   Clear
10:55 PM 62.6 °F 61.3 °F 96% 30.02 in 10.0 mi Calm Calm - N/A   Clear
11:15 PM 62.6 °F 61.2 °F 95% 30.03 in 10.0 mi Calm Calm - N/A   Clear
11:35 PM 62.8 °F 61.2 °F 94% 30.03 in 10.0 mi Calm Calm - N/A   Scattered Clouds
11:55 PM 62.6 °F 61.0 °F 94% 30.03 in 10.0 mi Calm Calm - N/A   Mostly Cloudy